This is the latest recevied weather packets stored in our database for station/object UR7D-12. If no packets are shown the sender has not sent any weather packets the latest 10 day(s).
| Time | Temp. | Humidity | Pressure | Rain* | Wind** | Luminosity | Snow |
|---|---|---|---|---|---|---|---|
| 1777621775 | 10.56° C | 42% | 1000.3 hPa | 0 mm | - | - | - |
| 1777621476 | 10° C | 42% | 1000.3 hPa | 0 mm | - | - | - |
| 1777621174 | 10° C | 41% | 1000.2 hPa | 0 mm | - | - | - |
| 1777620878 | 9.44° C | 41% | 1000.3 hPa | 0 mm | - | - | - |
| 1777620575 | 9.44° C | 46% | 1000.3 hPa | 0 mm | - | - | - |
| 1777619975 | 8.33° C | 48% | 1000.3 hPa | 0 mm | - | - | - |
| 1777619673 | 8.33° C | 50% | 1000.4 hPa | 0 mm | - | - | - |
| 1777619374 | 7.78° C | 51% | 1000.4 hPa | 0 mm | - | - | - |
| 1777618772 | 7.22° C | 51% | 1000.5 hPa | 0 mm | - | - | - |
| 1777618475 | 7.22° C | 52% | 1000.5 hPa | 0 mm | - | - | - |
| 1777618174 | 6.67° C | 53% | 1000.5 hPa | 0 mm | - | - | - |
| 1777617872 | 6.67° C | 53% | 1000.6 hPa | 0 mm | - | - | - |
| 1777617575 | 6.11° C | 54% | 1000.5 hPa | 0 mm | - | - | - |
| 1777617271 | 6.11° C | 55% | 1000.5 hPa | 0 mm | - | - | - |
| 1777616670 | 5.56° C | 57% | 1000.4 hPa | 0 mm | - | - | - |
| 1777616072 | 5° C | 57% | 1000.5 hPa | 0 mm | - | - | - |
| 1777615769 | 5° C | 56% | 1000.4 hPa | 0 mm | - | - | - |
| 1777615473 | 5° C | 59% | 1000.5 hPa | 0 mm | - | - | - |
| 1777615170 | 5° C | 57% | 1000.5 hPa | 0 mm | - | - | - |
| 1777614870 | 4.44° C | 58% | 1000.5 hPa | 0 mm | - | - | - |
| 1777614568 | 4.44° C | 58% | 1000.6 hPa | 0 mm | - | - | - |
| 1777614269 | 4.44° C | 59% | 1000.5 hPa | 0 mm | - | - | - |
| 1777613969 | 4.44° C | 59% | 1000.5 hPa | 0 mm | - | - | - |
| 1777613667 | 4.44° C | 59% | 1000.4 hPa | 0 mm | - | - | - |
| 1777613368 | 3.89° C | 60% | 1000.4 hPa | 0 mm | - | - | - |
* Rain latest hour (hover to see other rain measurements)
** Current wind speed in m/s (hover to see current wind gust speed)